This demonstration page uses our WeatherBlox Daily Observations layout. Learn more.

38.89511, -77.03637

Hourly Observations for August 27, 2015

Temp ( °F °C ) Dew Point ( °F °C ) Humidity (%) Winds ( mph kmh ) Pressure ( in mb ) Visibility ( mi km ) Precip ( " mm )
12:52 am 00:52 Mostly Clear 68 20 55 13 64 64 NNW 6 9 30.09 1019 10 16.09344 0 0
1:52 am 01:52 Partly Cloudy 66 19 55 13 68 68 NNW 7 11 30.09 1019 10 16.09344 0 0
2:52 am 02:52 Clear 64 18 57 14 78 78 N 5 7 30.06 1018 10 16.09344 0 0
3:52 am 03:52 Clear 64 18 57 14 78 78 NW 5 7 30.09 1019 10 16.09344 0 0
4:52 am 04:52 Clear 64 18 55 13 73 73 NW 8 13 30.09 1019 10 16.09344 0 0
5:52 am 05:52 Clear 63 17 55 13 77 77 NNW 9 15 30.09 1019 10 16.09344 0 0
6:52 am 06:52 Partly Cloudy 64 18 55 13 73 73 NNW 12 19 30.09 1019 10 16.09344 0 0
7:52 am 07:52 Partly Cloudy 66 19 57 14 73 73 N 13 20 30.12 1020 10 16.09344 0 0
8:52 am 08:52 Mostly Cloudy 72 22 57 14 61 61 N 8 13 30.12 1020 10 16.09344 0 0
9:52 am 09:52 Mostly Cloudy 73 23 55 13 53 53 N 13 20 30.12 1020 10 16.09344 0 0
10:52 am 10:52 Mostly Cloudy 75 24 54 12 47 47 NNW 9 15 30.15 1021 10 16.09344 0 0
11:52 am 11:52 Partly Cloudy 77 25 55 13 47 47 Calm 30.15 1021 10 16.09344 0 0
12:52 pm 12:52 Partly Cloudy 79 26 55 13 45 45 E 6 9 30.12 1020 10 16.09344 0 0
1:52 pm 13:52 Mostly Cloudy 81 27 54 12 39 39 NNE 7 11 30.12 1020 10 16.09344 0 0
2:52 pm 14:52 Mostly Cloudy 79 26 54 12 42 42 N 5 7 30.09 1019 10 16.09344 0 0
3:52 pm 15:52 Mostly Cloudy 82 28 54 12 37 37 N 6 9 30.09 1019 10 16.09344 0 0
4:52 pm 16:52 Mostly Cloudy 81 27 55 13 42 42 N 12 19 30.09 1019 10 16.09344 0 0
5:52 pm 17:52 Mostly Cloudy 81 27 55 13 42 42 N 7 11 30.09 1019 10 16.09344 0 0
6:52 pm 18:52 Partly Cloudy 79 26 54 12 42 42 N 7 11 30.09 1019 10 16.09344 0 0
7:52 pm 19:52 Partly Cloudy 75 24 55 13 50 50 N 8 13 30.09 1019 10 16.09344 0 0
8:52 pm 20:52 Mostly Clear 75 24 55 13 50 50 NNE 7 11 30.12 1020 10 16.09344 0 0
9:52 pm 21:52 Clear 73 23 57 14 57 57 E 6 9 30.15 1021 10 16.09344 0 0
10:52 pm 22:52 Partly Cloudy 75 24 57 14 54 54 NE 3 6 30.15 1021 10 16.09344 0 0
11:52 pm 23:52 Mostly Clear 72 22 57 14 61 61 Calm 30.15 1021 10 16.09344 0 0

Powered by AerisWeather